TimeMST,TemperatureF,Dew PointF,Humidity,Sea Level PressureIn,VisibilityMPH,Wind Direction,Wind SpeedMPH,Gust SpeedMPH,PrecipitationIn,Events,Conditions,WindDirDegrees,DateUTC
12:55 AM,39.0,35.1,86,30.19,10.0,SSE,9.2,-,0.00,,Overcast,160,2011-11-28 07:55:00
1:55 AM,39.0,34.0,82,30.21,10.0,South,9.2,-,N/A,,Overcast,170,2011-11-28 08:55:00
2:55 AM,39.0,35.1,86,30.25,10.0,SSW,11.5,19.6,0.00,Rain,Light Rain,200,2011-11-28 09:55:00
3:55 AM,37.0,33.1,86,30.28,10.0,SSW,6.9,-,0.00,,Scattered Clouds,200,2011-11-28 10:55:00
4:55 AM,37.9,30.9,76,30.29,10.0,SW,10.4,-,N/A,,Overcast,230,2011-11-28 11:55:00
5:55 AM,39.9,28.9,65,30.32,10.0,WSW,6.9,-,N/A,,Overcast,250,2011-11-28 12:55:00
6:55 AM,36.0,28.9,76,30.34,10.0,West,4.6,-,N/A,,Overcast,280,2011-11-28 13:55:00
7:55 AM,35.1,28.0,76,30.36,10.0,Calm,Calm,-,N/A,,Mostly Cloudy,0,2011-11-28 14:55:00
8:55 AM,36.0,28.0,73,30.38,10.0,Calm,Calm,-,N/A,,Mostly Cloudy,0,2011-11-28 15:55:00
9:55 AM,39.2,28.4,65,30.33,10.0,Calm,Calm,-,N/A,,Partly Cloudy,0,2011-11-28 16:55:00
10:55 AM,45.0,28.9,53,30.39,10.0,SW,6.9,-,N/A,,Clear,220,2011-11-28 17:55:00
11:55 AM,43.0,30.9,62,30.40,10.0,SE,6.9,-,N/A,,Mostly Cloudy,140,2011-11-28 18:55:00
12:55 PM,43.0,30.9,62,30.40,10.0,SE,3.5,-,N/A,,Clear,130,2011-11-28 19:55:00
1:55 PM,46.0,26.1,46,30.38,10.0,WSW,3.5,-,N/A,,Clear,250,2011-11-28 20:55:00
2:55 PM,43.0,28.9,58,30.38,10.0,South,3.5,-,N/A,,Mostly Cloudy,190,2011-11-28 21:55:00
3:55 PM,43.0,27.0,53,30.39,10.0,West,4.6,-,N/A,,Mostly Cloudy,270,2011-11-28 22:55:00
4:55 PM,35.1,26.1,70,30.39,10.0,SW,4.6,-,N/A,,Partly Cloudy,230,2011-11-28 23:55:00
5:55 PM,33.1,25.0,72,30.40,10.0,Calm,Calm,-,N/A,,Partly Cloudy,0,2011-11-29 00:55:00
6:55 PM,35.6,26.6,70,30.34,10.0,WSW,5.8,-,N/A,,Mostly Cloudy,240,2011-11-29 01:55:00
7:55 PM,34.0,27.0,75,30.41,10.0,SSW,4.6,-,N/A,,Mostly Cloudy,210,2011-11-29 02:55:00
8:55 PM,30.0,25.0,82,30.44,10.0,SW,3.5,-,N/A,,Clear,220,2011-11-29 03:55:00
9:55 PM,26.6,23.0,86,30.35,10.0,SSW,3.5,-,N/A,,Partly Cloudy,210,2011-11-29 04:55:00
10:55 PM,27.0,24.1,89,30.41,10.0,Calm,Calm,-,N/A,,Scattered Clouds,0,2011-11-29 05:55:00
11:55 PM,25.0,21.9,88,30.43,10.0,Calm,Calm,-,N/A,,Clear,0,2011-11-29 06:55:00